Location: Aalen
(48.8330°N, 10.1000°E)
Time: 08:45:15
(UTC+02:00)

Tianhe-1 - Visible Passes

Search period start: 18 June 2021 00:00
Search period end: 28 June 2021 00:00
Orbit: 375 x 386 km, 41.5° (Epoch: 18 June)

Date Brightness Start Highest point End Pass type
(mag) Time Alt. Az. Time Alt. Az. Time Alt. Az.
22 Jun 3.2 04:25:33 10° SSW 04:27:19 14° SSE 04:29:05 10° SE visible
23 Jun 3.5 03:26:43 10° SSE 03:26:43 10° SSE 03:27:05 10° SSE visible
24 Jun 2.9 04:00:27 14° SSW 04:01:50 17° SSE 04:04:02 10° ESE visible
25 Jun 3.4 03:02:05 12° SE 03:02:05 12° SE 03:02:46 10° SE visible
26 Jun 2.5 03:35:52 19° S 03:36:22 20° S 03:38:44 10° ESE visible
27 Jun 3.7 02:37:36 10° SE 02:37:36 10° SE 02:37:40 10° SE visible
27 Jun 2.5 04:09:43 13° SW 04:11:41 21° S 04:14:08 10° SE visible
